Regional Weather Roundup
Issued by NWS Newport/Morehead, NC

Current Version | Previous Version | Text Only | Print | Product List | Glossary Off
Versions: 1 2 3 4 5 6 7 8 9 10 11 12 13 14 15 16 17 18 19 20 21 22 23 24 25 26 27 28 29 30 31 32 33 34 35 36 37 38 39 40 41 42 43 44 45 46 47 48 49 50
000 ASUS42 KMHX 232013 RWRMHX WEATHER ROUNDUP FOR EASTERN NORTH CAROLINA NATIONAL WEATHER SERVICE NEWPORT/MOREHEAD CITY NC 300 PM EST THU FEB 23 2017 NOTE: "FAIR" INDICATES FEW OR NO CLOUDS BELOW 12,000 FEET WITH NO SIGNIFICANT WEATHER AND/OR OBSTRUCTIONS TO VISIBILITY NCZ015>017-031-032-045>047-102-103-232100- NORTH COAST CITY SKY/WX TMP DP RH WIND PRES REMARKS EDENTON PTSUNNY 73 55 54 SE6 29.91F ELIZABETH CITY MOSUNNY 68 55 63 E10 29.92F KITTY HAWK NOT AVBL MANTEO MOSUNNY 66 55 69 E5 29.93F $$ NCZ045>047-081-094-103-104-232100- CENTRAL COAST CITY SKY/WX TMP DP RH WIND PRES REMARKS FRISCO MOSUNNY 71 57 61 CALM 29.91F $$ NCZ095-097-098-100-101-232100- SOUTHERN COAST CITY SKY/WX TMP DP RH WIND PRES REMARKS BEAUFORT CLOUDY 70 60 70 SE7 29.90F CEDAR ISLAND NOT AVBL JACKSONVILLE SUNNY 74 57 55 SE14 29.87F PINEY ISLAND CLOUDY N/A N/A N/A NE7 29.90F WILMINGTON MOSUNNY 71 59 65 E10 29.88F $$ NCZ011>013-027>030-043-044-078>080-089-090>093-098-232100- COASTAL PLAIN CITY SKY/WX TMP DP RH WIND PRES REMARKS AHOSKIE N/A 73 51 45 S9G16 29.88F CLINTON MOSUNNY 73 55 53 S3 29.87F ELIZABETHTOWN MOSUNNY 73 55 51 E6 29.86F GOLDSBORO MOSUNNY 75 50 41 SE8 29.85F GREENVILLE MOSUNNY 73 50 43 S6 29.90F HAVELOCK NOT AVBL KENANSVILLE PTSUNNY 73 52 46 SE5 29.87F KINSTON MOSUNNY 73 50 43 E7 29.88F NEW BERN MOSUNNY 72 58 61 SE12 29.89F RICHLANDS MOSUNNY 72 54 53 SE8 29.88F ROCKY MOUNT PTSUNNY 73 51 46 S9 29.88F WASHINGTON CLOUDY 72 53 51 SE8 29.89F WHITEVILLE MOSUNNY 75 55 50 E9 29.85F $$ AMZ130-135-150-152-154-156-158-170-250-252-270-ANZ085-086-088-633-658-670-232100- MARINE OBSERVATIONS STATION/POSITION TIME TEMP WIND PRES WAVE SWELL AIR SEA DIR/SP/G HT/PER HT/PER (UTC) (F) (DEG/KT/KT) (MB) (FT/S) (FT/S) CHESAPEAKE LIGHT NOT AVBL 64 E VA BEACH 1950 59 55 130/ 6/ 6 1013.5 3/11 3/11 DUCK 1948 57 50 130/ 7/ 8 1012.9 2 E DUCK 2000 52 N/A 3/11 2/11 OREGON INLET 1942 61 55 70/ 5/ 8 1013.4 13E OREGON INLT NOT AVBL HATTERAS CG 1948 63 61 10/ 4/ 5 1012.7 DIAMOND BUOY 1950 69 73 140/ 16/ 19 1012.5 5/ 6 2/11 CAPE LOOKOUT 2000 65 90/ 13/ 14 1012.1 BEAUFORT LAB 1948 67 56 120/ 9/ 10 1011.5 30 SE NEW RVR IN 1908 67 170/ 10/ 14 1012.4 30 SE NEW RVR IN 1943 69 N/A 5/ 6 2/11 27 SE WRIGHTSVLE 1908 68 66 120/ 12/ 17 1012.2 5 SE WRIGHTSVLE 1908 61 58 70/ 8/ 12 1012.2 225 S CAPE HAT 1950 69 70 100/ 21/ 25 1010.1 9/ 7 3/11 41 SE CHARLESTON 1950 71 70 80/ 16/ 19 1008.4 9/ 8 7/ 8 $$

USA.gov is the U.S. government's official web portal to all federal, state and local government web resources and services.